Weather History for Moriarty, NM

Change the Weather History Date:

Monday, January 21, 2013

  Actual Average (KABQ) Record (KABQ)
Temperature  
Mean Temperature 28 °F 37 °F  
Max Temperature 53 °F 47 °F 68 °F (1971)
Min Temperature 2 °F 26 °F -2 °F (1918)
Degree Days  
Heating Degree Days 38 28  
Month to date heating degree days 610  
Since 1 July heating degree days 2367  
Cooling Degree Days 0 0  
Month to date cooling degree days 0  
Year to date cooling degree days 0  
Moisture  
Dew Point 4 °F    
Average Humidity 43    
Maximum Humidity 76    
Minimum Humidity 14    
Precipitation  
Precipitation 0.00 in 0.02 in 0.22 in (1916)
Month to date precipitation 0.26  
Year to date precipitation 0.26  
Snow  
Snow 0.00 in - - ()
Month to date snowfall  
Since 1 July snowfall  
Snow Depth -    
Sea Level Pressure  
Sea Level Pressure 30.26 in    
Wind  
Wind Speed 5 mph (NNW)    
Max Wind Speed 15 mph    
Max Gust Speed 18 mph    
Visibility 10 miles    
Events      
T = Trace of Precipitation, MM = Missing Value Source: NWS Daily Summary

Daily Weather History Graph

Daily Weather History Graph

Search for Another Location

Airport:

Trip Planner

Search our weather history database for the weather conditions in past years. The results will help you decide how hot, cold, wet, or windy it might be!

Date:

Astronomy

Jan. 21, 2013 Rise Set
Actual Time 7:09 AM MST 5:22 PM MST
Civil Twilight 6:42 AM MST 5:49 PM MST
Nautical Twilight 6:11 AM MST 6:19 PM MST
Astronomical Twilight 5:41 AM MST 6:50 PM MST
Moon 1:04 PM MST (1/21) 2:39 AM MST (1/21)
Length of Visible Light 11h 07m
Length of Day
10h 12m
Waxing Gibbous, 75% of the Moon is Illuminated
Jan 21
Waxing Gibbous
Jan 26
Full
Feb 3
Last Quarter
Feb 10
New
Feb 17
First Quarter

Hourly Weather History & Observations

Time (MST) Temp. Windchill Dew Point Humidity Pressure Visibility Wind Dir Wind Speed Gust Speed Precip Events Conditions
12:15 AM 12.2 °F 4.3 °F 1.2 °F 61% 30.28 in 10.0 mi NE 4.6 mph - N/A   Clear
12:35 AM 9.3 °F 1.0 °F -0.9 °F 63% 30.28 in 10.0 mi NNE 4.6 mph - N/A   Clear
12:55 AM 10.8 °F 2.7 °F -0.0 °F 62% 30.29 in 10.0 mi NNE 4.6 mph - N/A   Clear
1:15 AM 10.9 °F 4.7 °F 1.0 °F 64% 30.29 in 10.0 mi NNE 3.5 mph - N/A   Clear
1:35 AM 11.7 °F 5.5 °F 2.1 °F 66% 30.29 in 10.0 mi NE 3.5 mph - N/A   Clear
1:55 AM 9.7 °F 1.4 °F 0.7 °F 67% 30.29 in 10.0 mi NNE 4.6 mph - N/A   Clear
2:15 AM 9.7 °F 1.4 °F -0.8 °F 63% 30.29 in 10.0 mi NNE 4.6 mph - N/A   Clear
2:35 AM 12.2 °F 6.1 °F 3.0 °F 67% 30.29 in 10.0 mi NNE 3.5 mph - N/A   Clear
2:55 AM 9.7 °F 1.4 °F 0.3 °F 66% 30.29 in 10.0 mi NE 4.6 mph - N/A   Clear
3:15 AM 11.3 °F - 2.1 °F 67% 30.29 in 10.0 mi Calm Calm - N/A   Clear
3:35 AM 10.2 °F - 1.8 °F 69% 30.29 in 10.0 mi Calm Calm - N/A   Clear
3:55 AM 8.4 °F - -0.4 °F 67% 30.28 in 10.0 mi Calm Calm - N/A   Clear
4:15 AM 8.6 °F 2.0 °F -0.0 °F 68% 30.28 in 10.0 mi NNE 3.5 mph - N/A   Clear
4:35 AM 8.6 °F - 0.9 °F 71% 30.28 in 10.0 mi Calm Calm - N/A   Clear
4:55 AM 6.8 °F - -2.2 °F 67% 30.27 in 10.0 mi Calm Calm - N/A   Clear
5:15 AM 9.0 °F - 0.9 °F 70% 30.27 in 10.0 mi Calm Calm - N/A   Clear
5:35 AM 4.8 °F - -2.4 °F 72% 30.27 in 10.0 mi Calm Calm - N/A   Clear
5:55 AM 5.2 °F -6.7 °F -0.9 °F 76% 30.27 in 10.0 mi NE 6.9 mph - N/A   Clear
6:15 AM 5.9 °F -3.0 °F -0.2 °F 76% 30.28 in 10.0 mi NE 4.6 mph - N/A   Clear
6:35 AM 4.3 °F -6.5 °F -2.0 °F 75% 30.28 in 10.0 mi North 5.8 mph - N/A   Clear
6:55 AM 2.1 °F -7.4 °F -4.2 °F 75% 30.28 in 10.0 mi North 4.6 mph - N/A   Clear
7:15 AM 3.4 °F -7.5 °F -2.9 °F 75% 30.28 in 10.0 mi NNW 5.8 mph - N/A   Clear
7:35 AM 5.0 °F -6.9 °F -1.5 °F 75% 30.29 in 10.0 mi NNW 6.9 mph - N/A   Clear
7:55 AM 7.9 °F 1.2 °F 0.1 °F 71% 30.29 in 10.0 mi North 3.5 mph - N/A   Clear
8:15 AM 13.3 °F - 3.7 °F 66% 30.29 in 10.0 mi Calm Calm - N/A   Clear
8:35 AM 18.1 °F - 6.3 °F 60% 30.29 in 10.0 mi Calm Calm - N/A   Clear
8:55 AM 25.2 °F 19.5 °F 9.3 °F 51% 30.30 in 10.0 mi North 4.6 mph - N/A   Clear
9:15 AM 29.7 °F 23.7 °F 10.4 °F 45% 30.30 in 10.0 mi North 5.8 mph - N/A   Clear
9:35 AM 33.4 °F 27.3 °F 11.1 °F 40% 30.30 in 10.0 mi North 6.9 mph - N/A   Clear
9:55 AM 36.7 °F 32.0 °F 10.9 °F 35% 30.31 in 10.0 mi North 5.8 mph - N/A   Clear
10:15 AM 39.2 °F 35.0 °F 11.1 °F 32% 30.31 in 10.0 mi NW 5.8 mph - N/A   Clear
10:35 AM 41.5 °F 38.6 °F 10.8 °F 28% 30.31 in 10.0 mi North 4.6 mph - N/A   Clear
10:55 AM 43.2 °F 39.7 °F 11.1 °F 27% 30.31 in 10.0 mi NNE 5.8 mph - N/A   Clear
11:15 AM 44.8 °F 41.6 °F 10.4 °F 25% 30.29 in 10.0 mi North 5.8 mph - N/A   Clear
11:35 AM 48.2 °F - 8.8 °F 20% 30.28 in 10.0 mi WNW 13.8 mph - N/A   Clear
11:55 AM 48.7 °F - 8.1 °F 19% 30.26 in 10.0 mi WNW 15.0 mph - N/A   Clear
12:15 PM 49.3 °F - 6.6 °F 18% 30.25 in 10.0 mi NW 12.7 mph - N/A   Clear
12:35 PM 51.1 °F - 6.6 °F 17% 30.24 in 10.0 mi WNW 13.8 mph 17.3 mph N/A   Clear
12:55 PM 51.3 °F - 6.1 °F 16% 30.23 in 10.0 mi WNW 8.1 mph - N/A   Clear
1:15 PM 52.0 °F - 5.9 °F 16% 30.22 in 10.0 mi WNW 8.1 mph - N/A   Clear
1:35 PM 53.1 °F - 6.1 °F 15% 30.21 in 10.0 mi WNW 11.5 mph 17.3 mph N/A   Clear
1:55 PM 52.7 °F - 5.4 °F 15% 30.21 in 10.0 mi WNW 11.5 mph 18.4 mph N/A   Clear
2:15 PM 53.2 °F - 5.0 °F 14% 30.21 in 10.0 mi WNW 11.5 mph - N/A   Clear
2:35 PM 53.1 °F - 5.4 °F 15% 30.21 in 10.0 mi NW 9.2 mph 16.1 mph N/A   Clear
2:55 PM 53.2 °F - 4.6 °F 14% 30.21 in 10.0 mi NW 9.2 mph - N/A   Clear
3:15 PM 53.2 °F - 4.5 °F 14% 30.20 in 10.0 mi WNW 12.7 mph 16.1 mph N/A   Clear
3:35 PM 52.5 °F - 4.1 °F 14% 30.20 in 10.0 mi WNW 12.7 mph - N/A   Clear
3:55 PM 52.3 °F - 5.2 °F 15% 30.20 in 10.0 mi WNW 10.4 mph - N/A   Clear
4:15 PM 51.4 °F - 5.7 °F 16% 30.20 in 10.0 mi WNW 10.4 mph - N/A   Clear
4:35 PM 50.0 °F - 5.4 °F 16% 30.20 in 10.0 mi NW 6.9 mph - N/A   Clear
4:55 PM 46.4 °F 42.9 °F 4.6 °F 18% 30.20 in 10.0 mi NW 6.9 mph - N/A   Clear
5:15 PM 43.0 °F 41.3 °F 5.0 °F 21% 30.21 in 10.0 mi NNW 3.5 mph - N/A   Clear
5:35 PM 41.4 °F - 4.8 °F 22% 30.21 in 10.0 mi Calm Calm - N/A   Clear
5:55 PM 39.2 °F 37.0 °F 4.8 °F 24% 30.21 in 10.0 mi North 3.5 mph - N/A   Clear
6:15 PM 38.1 °F - 5.2 °F 25% 30.21 in 10.0 mi Calm Calm - N/A   Clear
6:35 PM 32.0 °F 27.5 °F 4.1 °F 31% 30.22 in 10.0 mi NW 4.6 mph - N/A   Clear
6:55 PM 30.9 °F - 4.6 °F 33% 30.22 in 10.0 mi Calm Calm - N/A   Clear
7:15 PM 30.9 °F 25.2 °F 4.5 °F 33% 30.23 in 10.0 mi NW 5.8 mph - N/A   Clear
7:35 PM 31.3 °F 24.7 °F 6.1 °F 35% 30.23 in 10.0 mi WNW 6.9 mph - N/A   Clear
7:55 PM 30.4 °F 22.2 °F 4.3 °F 33% 30.23 in 10.0 mi West 9.2 mph - N/A   Clear
8:15 PM 31.3 °F 22.7 °F 7.5 °F 37% 30.23 in 10.0 mi West 10.4 mph - N/A   Clear
8:35 PM 31.3 °F 23.9 °F 7.3 °F 37% 30.23 in 10.0 mi West 8.1 mph - N/A   Clear
8:55 PM 30.9 °F 22.8 °F 6.6 °F 36% 30.23 in 10.0 mi WNW 9.2 mph - N/A   Clear
9:15 PM 33.1 °F 24.9 °F 7.5 °F 34% 30.23 in 10.0 mi West 10.4 mph - N/A   Clear
9:35 PM 27.7 °F - 6.3 °F 40% 30.24 in 10.0 mi Calm Calm - N/A   Clear
9:55 PM 26.6 °F 20.0 °F 6.4 °F 42% 30.24 in 10.0 mi ENE 5.8 mph - N/A   Clear
10:15 PM 27.7 °F 21.3 °F 7.0 °F 42% 30.25 in 10.0 mi ENE 5.8 mph - N/A   Clear
10:35 PM 29.1 °F - 7.9 °F 41% 30.25 in 10.0 mi Calm Calm - N/A   Clear
10:55 PM 23.0 °F 17.0 °F 6.1 °F 48% 30.25 in 10.0 mi NE 4.6 mph - N/A   Clear
11:15 PM 24.8 °F 19.1 °F 6.6 °F 46% 30.25 in 10.0 mi North 4.6 mph - N/A   Clear